[TLELIST] Archives

 

[TLELIST] Current TLEs

January 8th 2025 PDT

HST 1 20580U 90037B 25007.79871294 .00010197 00000-0 42153-3 0 9991 2 20580 28.4692 49.8219 0002826 122.0850 238.0018 15.22290196708191 ISS (ZARYA) 1 25544U 98067A 25008.32133102 .00017677 00000-0 30706-3 0 9997 2 25544 51.6402 18.9578 0006525 56.8248 127.0309 15.50891590490366 CXO 1 25867U 99040B 25010.77007610 .00000454 00000-0 00000+0 0 9998 2 25867 45.9725 138.0735 8652246 306.0969 0.2177 0.37805379 26507 ...Continue Reading

[TLELIST] Current TLEs

January 8th 2025 PDT

HST 1 20580U 90037B 25007.79871294 .00010197 00000-0 42153-3 0 9991 2 20580 28.4692 49.8219 0002826 122.0850 238.0018 15.22290196708191 ISS (ZARYA) 1 25544U 98067A 25008.32133102 .00017677 00000-0 30706-3 0 9997 2 25544 51.6402 18.9578 0006525 56.8248 127.0309 15.50891590490366 CXO 1 25867U 99040B 25010.77007610 .00000454 00000-0 00000+0 0 9998 2 25867 45.9725 138.0735 8652246 306.0969 0.2177 0.37805379 26507 ...Continue Reading

[TLELIST] Current TLEs

January 7th 2025 PDT

HST 1 20580U 90037B 25006.81532105 .00010563 00000-0 43721-3 0 9997 2 20580 28.4689 56.4568 0002813 112.5690 247.5201 15.22269746708040 ISS (ZARYA) 1 25544U 98067A 25007.20984286 .00021466 00000-0 37141-3 0 9991 2 25544 51.6399 24.4706 0006536 53.8303 40.3485 15.50861227490194 CXO 1 25867U 99040B 25008.13348319 .00000484 00000-0 00000+0 0 9992 2 25867 45.8853 138.2913 8655281 305.9584 1.3815 0.37808787 26496 ...Continue Reading

[TLELIST] Current TLEs

January 7th 2025 PDT

HST 1 20580U 90037B 25006.81532105 .00010563 00000-0 43721-3 0 9997 2 20580 28.4689 56.4568 0002813 112.5690 247.5201 15.22269746708040 ISS (ZARYA) 1 25544U 98067A 25007.20984286 .00021466 00000-0 37141-3 0 9991 2 25544 51.6399 24.4706 0006536 53.8303 40.3485 15.50861227490194 CXO 1 25867U 99040B 25008.13348319 .00000484 00000-0 00000+0 0 9992 2 25867 45.8853 138.2913 8655281 305.9584 1.3815 0.37808787 26496 ...Continue Reading

[TLELIST] Current TLEs

January 6th 2025 PDT

HST 1 20580U 90037B 25005.43854934 .00012153 00000-0 50476-3 0 9993 2 20580 28.4688 65.7456 0002772 99.3748 260.7159 15.22236828708097 ISS (ZARYA) 1 25544U 98067A 25006.50873924 .00021750 00000-0 37660-3 0 9991 2 25544 51.6398 27.9505 0006393 51.7303 85.5734 15.50832392490083 CXO 1 25867U 99040B 25008.13348319 .00000484 00000-0 00000+0 0 9992 2 25867 45.8853 138.2913 8655281 305.9584 1.3815 0.37808787 26496 ...Continue Reading

[TLELIST] Current TLEs

January 6th 2025 PDT

HST 1 20580U 90037B 25005.43854934 .00012153 00000-0 50476-3 0 9993 2 20580 28.4688 65.7456 0002772 99.3748 260.7159 15.22236828708097 ISS (ZARYA) 1 25544U 98067A 25006.50873924 .00021750 00000-0 37660-3 0 9991 2 25544 51.6398 27.9505 0006393 51.7303 85.5734 15.50832392490083 CXO 1 25867U 99040B 25008.13348319 .00000484 00000-0 00000+0 0 9992 2 25867 45.8853 138.2913 8655281 305.9584 1.3815 0.37808787 26496 ...Continue Reading

[TLELIST] Current TLEs

January 5th 2025 PDT

HST 1 20580U 90037B 25004.84849472 .00012167 00000-0 50557-3 0 9993 2 20580 28.4687 69.7258 0002788 93.6067 266.4846 15.22221776707741 ISS (ZARYA) 1 25544U 98067A 25005.21659662 .00022613 00000-0 39198-3 0 9996 2 25544 51.6390 34.3594 0006245 46.9928 71.6484 15.50776974489887 CXO 1 25867U 99040B 25005.48161696 .00000610 00000-0 00000+0 0 9999 2 25867 45.7878 138.5273 8656211 305.8213 0.4036 0.37805792 26483 ...Continue Reading

[TLELIST] Current TLEs

January 4th 2025 PDT

HST 1 20580U 90037B 25003.86505663 .00009987 00000-0 41386-3 0 9991 2 20580 28.4687 76.3606 0002757 84.8686 275.2222 15.22196173707598 ISS (ZARYA) 1 25544U 98067A 25004.00595347 .00025742 00000-0 44575-3 0 9992 2 25544 51.6402 40.3677 0006188 42.3179 153.2056 15.50725948489690 CXO 1 25867U 99040B 25005.48161696 .00000610 00000-0 00000+0 0 9999 2 25867 45.7878 138.5273 8656211 305.8213 0.4036 0.37805792 26483 ...Continue Reading

[TLELIST] Current TLEs

January 3rd 2025 PDT

HST 1 20580U 90037B 25002.88160328 .00013889 00000-0 57902-3 0 9994 2 20580 28.4687 82.9944 0002675 74.3722 285.7167 15.22174969707447 ISS (ZARYA) 1 25544U 98067A 25003.35940972 .00023404 00000-0 40658-3 0 9998 2 25544 51.6394 43.5721 0006223 40.5974 143.1760 15.50692603489598 CXO 1 25867U 99040B 25005.48161696 .00000610 00000-0 00000+0 0 9999 2 25867 45.7878 138.5273 8656211 305.8213 0.4036 0.37805792 26483 ...Continue Reading

[TLELIST] Current TLEs

January 2nd 2025 PDT

HST 1 20580U 90037B 25001.57030551 .00017492 00000-0 73207-3 0 9993 2 20580 28.4689 91.8396 0002660 62.7061 297.3803 15.22132261707243 ISS (ZARYA) 1 25544U 98067A 25002.23095720 .00034139 00000-0 58981-3 0 9991 2 25544 51.6378 49.1720 0006118 33.9345 326.2034 15.50638329489427 CXO 1 25867U 99040B 25005.48161696 .00000610 00000-0 00000+0 0 9999 2 25867 45.7878 138.5273 8656211 305.8213 0.4036 0.37805792 26483 ...Continue Reading
  • This mailing list is a public mailing list - anyone may join or leave, at any time.
  • This mailing list is announce-only.

International Space Station (ISS) / Hubble Space Telescope (HST) / Chandra X-Ray Observatory Orbital Data via EMAIL

Privacy Policy:

Private list